Other Public Products
Issued by NWS Grand Forks, ND

Home | Current Version | Previous Version | Text Only | Print | Product List | Glossary Off
Versions: 1 2 3 4 5 6 7 8 9 10 11 12 13 14 15 16 17 18 19 20 21 22 23 24 25 26 27 28 29 30 31 32 33 34 35 36 37 38 39 40 41 42 43 44 45 46 47 48 49 50

000
FPUS83 KFGF 300531
OPUFGF
PRAIRIE TO PINES WEATHER ROUNDUP
NATIONAL WEATHER SERVICE EASTERN NORTH DAKOTA/GRAND FORKS ND
1200 AM CDT MON MAR 30 2015

 **SATELLITE DATA USED TO AUGMENT SKY COVER AT AUTOMATED STATIONS**
 *****  WEATHER ACROSS EASTERN NORTH DAKOTA  *****

CITY           SKY/WX    TMP DP  RH WIND       PRES   REMARKS
GRAND FORKS    CLEAR     32  27  81 W7        29.90S
GRAND FORKS AF CLEAR     35  28  74 W6        29.91R
GRAND CITY NWS   N/A     32 N/A N/A NW5         N/A
BUXTON         NOT AVBL
DEVILS LAKE    MOCLDY    36  28  75 SW9       29.90S
FARGO          CLEAR     37  27  67 W6        29.92S
WAHPETON ARPT  CLEAR     36  27  69 W7        29.94S
$$

 *****  WEATHER ACROSS CENTRAL AND WESTERN NORTH DAKOTA  *****

CITY           SKY/WX    TMP DP  RH WIND       PRES   REMARKS
JAMESTOWN      PTCLDY    38  29  70 W5        29.93F
BISMARCK       CLOUDY    41  30  65 CALM      29.94F
MINOT          MOCLDY    39  31  72 SE5       29.88F
MINOT AFB      MOCLDY    37  37  99 S8        29.87F
GARRISON         N/A     40  31  70 S5        29.89F
WILLISTON      CLEAR     44  33  65 S7        29.87F
DICKINSON      MOCLDY    39  28  64 SW6       29.92F
HETTINGER      MOCLDY    35  28  75 CALM      29.98F
$$

 *****  OTHER OBSERVATIONS NORTHEAST NORTH DAKOTA  *****

CITY           SKY/WX    TMP DP  RH WIND       PRES   REMARKS
WALHALLA         N/A     39  28  65 W7        29.88F
LANGDON        NOT AVBL
CAVALIER       FAIR      37  28  70 W9        29.88F
GRAFTON        NOT AVBL
CANDO          FAIR      32  30  93 CALM      29.90F
FORT TOTTEN      N/A     37  29  73 CALM      29.95
ROLLA          FAIR      32  32 100 CALM      29.88F
RUGBY            N/A     37  32  81 S6        29.89F
 ***** THE ABOVE OBSERVATIONS ARE NON NWS ARE NOT QUALITY
        CONTROLLED AND MAY MIS-REPORT RAIN FOR SNOW...
$$

 *****  OTHER OBSERVATIONS SOUTHEAST NORTH DAKOTA *****

CITY           SKY/WX    TMP DP  RH WIND       PRES   REMARKS
COOPERSTOWN    NOT AVBL
VALLEY CITY    FAIR      36  30  80 W9        29.93S
OAKES            N/A     37  32  81 W3        29.96S
GWINNER        MOCLDY    37  32  81 W12         N/A
SHEYENNE NWR     N/A     38  29  69 W6        29.95
BUFFALO        NOT AVBL
WYNDMERE         N/A     39  30  70 W7          N/A
 ***** THE ABOVE OBSERVATIONS ARE NON NWS ARE NOT QUALITY
       CONTROLLED AND MAY MIS-REPORT RAIN FOR SNOW...
$$

  *****  WEATHER ACROSS NORTHERN MINNESOTA  *****

CITY           SKY/WX    TMP DP  RH WIND       PRES   REMARKS
FLAG ISLAND    CLEAR     37  25  60 W9        29.82S
WARROAD        CLEAR     36  27  69 W8        29.84S
ROSEAU         PTCLDY    39  28  65 W6        29.85S
HALLOCK        CLEAR     34  30  86 W7        29.88R
THF RVR FALLS  CLEAR     37  28  70 W7        29.89R
HALSTAD        NOT AVBL
FOSSTON        CLEAR     28  25  86 CALM      29.90R
BAUDETTE       CLEAR     35  25  66 W8        29.82S
WASKISH        CLEAR     34  28  80 CALM      29.85S
CROOKSTON      CLEAR     32  27  80 W9        29.91R WCI  24
$$
  *****  WEATHER ACROSS CENTRAL AND WEST MINNESOTA  *****

CITY           SKY/WX    TMP DP  RH WIND       PRES   REMARKS
BEMIDJI        CLEAR     32  27  80 CALM      29.87S
PARK RAPIDS    PTCLDY    34  26  72 W3        29.88F
WADENA         PTCLDY    36  27  69 SW7       29.91S
DETROIT LAKES  FAIR      41  30  65 W5        29.92R
MOORHEAD       CLEAR     39  30  70 W6        29.93S
FERGUS FALLS   FAIR      39  27  60 SW3       29.95S
ELBOW LAKE     FAIR      33  27  78 SW5       29.93S
MORRIS MN      CLEAR     37  28  70 W5        29.94S
STAPLES        PTCLDY    36  27  69 SW3       29.91S
WHEATON        CLEAR     37  27  65 SW10      29.96S
$$
  *****  WEATHER ELSEWHERE ACROSS MINNESOTA  *****

CITY           SKY/WX    TMP DP  RH WIND       PRES   REMARKS
DULUTH         CLEAR     37  24  59 W10       29.82S
INTRNTL FALLS  CLEAR     34  25  69 W8        29.79S
ELY            CLEAR     34  27  75 W9        29.76S
CLOQUET        FAIR      37  25  60 W8        29.84S
BRAINERD       CLEAR     32  23  69 SW9       29.90F WCI  24
HIBBING        CLEAR     33  23  66 W5        29.82S
ALEXANDRIA     MOCLDY    36  27  69 SW5       29.94F
SAINT CLOUD    PTCLDY    37  26  64 SW7       29.94S
MINNEAPOLIS    MOCLDY    43  27  53 SW6       29.96S
$$

  *****  WEATHER ACROSS SOUTH DAKOTA  *****

CITY           SKY/WX    TMP DP  RH WIND       PRES   REMARKS
SIOUX FALLS    CLEAR     35  21  56 SW5       30.04F
BROOKINGS      NOT AVBL
WATERTOWN      CLEAR     35  28  75 S5        29.99S
HURON          PTCLDY    41  23  48 S5        30.01F
SISSETON         N/A     43  27  53 W14       29.94F
ABERDEEN       PTCLDY    32  22  66 W5        29.99S
MITCHELL       PTCLDY    45  23  42 SW5       30.04F
PIERRE         CLOUDY    47  28  47 S6        30.00S
MOBRIDGE       CLOUDY    43  31  62 SE6       29.96S
RAPID CITY     MOCLDY    45  27  49 CALM      30.05F
$$

  *****  SOME WEATHER IN NEARBY STATES *****

CITY           SKY/WX    TMP DP  RH WIND       PRES   REMARKS
GLASGOW MT     CLEAR     44  31  60 W8        29.89R
GREAT FALLS MT CLOUDY    52  30  43 SW25G33   30.02R
CHEYENNE WY    MOCLDY    48  23  37 SW14      30.18S
SCOTTSBLUFF NE PTCLDY    39  24  55 E8        30.10F
OMAHA NE       CLEAR     38  28  67 SE3       30.12F
DES MOINES IA  CLEAR     45  23  42 W6        30.11R
DAVENPORT IA   CLEAR     32  26  78 W9        30.03R WCI  24
CHICAGO IL     PTCLDY    40  33  76 W5        29.93R
EAU CLAIRE WI  CLEAR     36  25  64 SW7       29.91R
LA CROSSE WI   CLEAR     43  28  55 W10       29.94R
$$

  *****  SOME NATIONAL WEATHER *****

CITY           SKY/WX    TMP DP  RH WIND       PRES   REMARKS
LA GUARDIA NY  MOCLDY    39  13  34 SW13      30.11F
RALEIGH NC     PTCLDY    42  17  36 SW12      30.20F
ATLANTA GA     PTCLDY    52  26  36 S7        30.22F
NEW ORLEANS LA PTCLDY    65  61  87 S3        30.21F
OKLAHOMA CITY  PTCLDY    59  43  55 N3        30.17R
ALBUQUERQUE NM CLOUDY    64  29  26 E25G37    30.19S
SALT LAKE CITY CLEAR     51  25  36 S8        30.18F
LOS ANGELES CA MOCLDY    60  58  92 W9        30.03R
BOISE ID       PTCLDY    52  29  41 SE5       30.17R
SEATTLE WA     CLOUDY    55  47  74 W6        30.18R
$$

*** WEATHER ACROSS MANITOBA...SASKATCHEWAN AND ONTARIO ***
                ***ONTARIO***

CITY           SKY/WX    TMP DP  RH WIND       PRES   REMARKS
GERALDTON      FLURRIES  32  27  80 NW16      29.54R WCI  21
THUNDER BAY    FLURRIES  36  27  69 NW14G23   29.68S
SIOUX LOOKOUT  MOCLDY    30  28  93 N10       29.73R WCI  21
TORONTO        FLURRIES  36  30  80 S14G24    29.66F
BIG TROUT LK   MOCLDY     9   5  85 N8        29.80R WCI  -4
PICKLE LAKE    NOT AVBL
DRYDEN         MOCLDY    34  28  80 N9        29.76R
KENORA         CLEAR     37  25  60 NW6       29.79R
$$
                *** MANITOBA***

CITY           SKY/WX    TMP DP  RH WIND       PRES   REMARKS
BRANDON        PTCLDY    32  28  86 N3        29.87F
DAUPHIN        CLEAR     37  27  65 W9        29.83F
ISLAND LAKE    FLURRIES  18  12  79 N6        29.88R WCI   9
PILOT MOUND      N/A     34  27  75 SW3         N/A
THE PAS        PTCLDY    34  19  55 VRB2      29.76F
THOMPSON       CLEAR     14  10  85 E3        29.84S
WINNIPEG       CLEAR     32  27  80 W8        29.86S WCI  25
LYNN LAKE      CLEAR     23  19  86 E6        29.74S WCI  16
CHURCHILL      CRYSTALS   0  -4  85 NW6       29.96S WCI -12
GILLAM         CLEAR      0  -6  78 SE2       29.92S
$$
                ***SASKATCHEWAN***

CITY           SKY/WX    TMP DP  RH WIND       PRES   REMARKS
ESTEVAN        PTCLDY    37  32  81 SE10      29.83F
KINDERSLEY     LGT RAIN  46  37  71 E9        29.75R
LLOYDMINSTER   CLOUDY    46  34  61 NW14G20   29.77R
PRINCE ALBERT  LGT RAIN  43  34  70 SE5       29.75F
REGINA         PTCLDY    41  36  81 SE12      29.80F


USA.gov is the U.S. government's official web portal to all federal, state and local government web resources and services.